When you browse on this site, cookies collect data to enhance your experience and personalize the content and advertising you see.
Visit our Privacy Policy to learn more. By continuing to use the site, you agree to this use of cookies and data.
  • In Hungary
  • List of Countries
  • For 7 days
  • Water Temperature
  • Satellite Maps
  • Weather Map
  • News
  • Weather Widgets
  • user-avatar
    Login

    Hourly Weather Yasnaya Polyana

    Today, 17 November, Saturday

    Time Temperature Precipitation Wind Pressure Humidity
    00:00 -4°C° 0 mm 2 mps 770 mmHg 26%
    01:00 -4°C° 0 mm 2 mps 770 mmHg 25%
    02:00 -4°C° 0 mm 2 mps 769 mmHg 25%
    03:00 -2°C° 0 mm 1 mps 769 mmHg 25%
    04:00 -2°C° 0 mm 1 mps 769 mmHg 25%
    05:00 -2°C° 0 mm 1 mps 769 mmHg 24%
    06:00 -2°C° 0 mm 1 mps 769 mmHg 24%
    07:00 -2°C° 0 mm 1 mps 768 mmHg 24%
    08:00 -2°C° 0 mm 1 mps 768 mmHg 23%
    09:00 -2°C° 0 mm 1 mps 768 mmHg 22%
    10:00 -1°C° 0 mm 1 mps 768 mmHg 21%
    11:00 +1°C° 0 mm 1 mps 767 mmHg 19%
    12:00 +2°C° 0 mm 1 mps 767 mmHg 18%
    13:00 +2°C° 0 mm 1 mps 766 mmHg 19%
    14:00 +2°C° 0 mm 1 mps 766 mmHg 21%
    15:00 +2°C° 0 mm 1 mps 765 mmHg 22%
    16:00 -1°C° 0 mm 2 mps 764 mmHg 23%
    17:00 -2°C° 0 mm 2 mps 764 mmHg 23%
    18:00 -2°C° 0 mm 2 mps 763 mmHg 24%
    19:00 -2°C° 0 mm 2 mps 763 mmHg 24%
    20:00 -2°C° 0 mm 2 mps 762 mmHg 24%
    21:00 -2°C° 0 mm 3 mps 761 mmHg 24%
    22:00 -4°C° 0 mm 3 mps 761 mmHg 24%
    23:00 -4°C° 0 mm 3 mps 760 mmHg 25%

    Tomorrow, 18 November, Sunday

    Time Temperature Precipitation Wind Pressure Humidity
    00:00 -4°C° 0 mm 3 mps 759 mmHg 25%
    01:00 -4°C° 0 mm 4 mps 759 mmHg 25%
    02:00 -4°C° 0 mm 4 mps 758 mmHg 25%
    03:00 -4°C° 0 mm 4 mps 758 mmHg 24%
    04:00 -4°C° 0 mm 4 mps 757 mmHg 25%
    05:00 -4°C° 0 mm 4 mps 756 mmHg 26%
    06:00 -4°C° 0 mm 4 mps 755 mmHg 26%
    07:00 -4°C° 0 mm 4 mps 755 mmHg 28%
    08:00 -3°C° 0 mm 4 mps 755 mmHg 29%
    09:00 -3°C° 0 mm 4 mps 755 mmHg 30%
    10:00 -2°C° 0 mm 3 mps 755 mmHg 31%
    11:00 -1°C° 0 mm 3 mps 754 mmHg 32%
    12:00 0°C° 0 mm 3 mps 754 mmHg 33%
    13:00 0°C° 0 mm 3 mps 754 mmHg 34%
    14:00 0°C° 0 mm 3 mps 754 mmHg 36%
    15:00 +1°C° 0 mm 2 mps 754 mmHg 37%
    16:00 -1°C° 0 mm 2 mps 754 mmHg 39%
    17:00 -1°C° 0 mm 2 mps 754 mmHg 41%
    18:00 -2°C° 0 mm 2 mps 754 mmHg 42%
    19:00 -2°C° 0 mm 2 mps 754 mmHg 45%
    20:00 -2°C° 0 mm 2 mps 754 mmHg 47%
    21:00 0°C° 0 mm 1 mps 754 mmHg 50%
    22:00 0°C° 0 mm 1 mps 754 mmHg 51%
    23:00 -1°C° 0 mm 1 mps 755 mmHg 53%

    Day after tomorrow, 19 November, Monday

    Time Temperature Precipitation Wind Pressure Humidity
    00:00 -1°C° 0 mm 1 mps 755 mmHg 54%
    01:00 -1°C° 0 mm 1 mps 755 mmHg 53%
    02:00 -1°C° 0 mm 1 mps 755 mmHg 53%
    03:00 -1°C° 0 mm 1 mps 756 mmHg 52%
    04:00 -1°C° 0 mm 1 mps 756 mmHg 52%
    05:00 -1°C° 0 mm 1 mps 756 mmHg 51%
    06:00 -1°C° 0 mm 1 mps 756 mmHg 51%
    07:00 -1°C° 0 mm 1 mps 757 mmHg 50%
    08:00 -1°C° 0 mm 1 mps 757 mmHg 48%
    09:00 -1°C° 0 mm 1 mps 758 mmHg 47%
    10:00 0°C° 0 mm 1 mps 758 mmHg 44%
    11:00 0°C° 0 mm 1 mps 758 mmHg 42%
    12:00 +1°C° 0 mm 1 mps 759 mmHg 39%
    13:00 +1°C° 0 mm 1 mps 759 mmHg 40%
    14:00 +1°C° 0 mm 1 mps 759 mmHg 41%
    15:00 +1°C° 0 mm 1 mps 759 mmHg 42%
    16:00 0°C° 0 mm 1 mps 759 mmHg 44%
    17:00 -2°C° 0 mm 2 mps 760 mmHg 46%
    18:00 -3°C° 0 mm 2 mps 760 mmHg 48%
    19:00 -3°C° 0 mm 2 mps 760 mmHg 49%
    20:00 -3°C° 0 mm 2 mps 760 mmHg 50%
    21:00 -3°C° 0 mm 2 mps 760 mmHg 51%
    22:00 -3°C° 0 mm 2 mps 761 mmHg 52%
    23:00 -3°C° 0 mm 2 mps 761 mmHg 52%

    20 November, Tuesday

    Time Temperature Precipitation Wind Pressure Humidity
    00:00 -3°C° 0 mm 2 mps 761 mmHg 53%
    01:00 -3°C° 0 mm 2 mps 761 mmHg 53%
    02:00 -3°C° 0 mm 2 mps 761 mmHg 54%
    03:00 -3°C° 0 mm 2 mps 761 mmHg 54%
    04:00 -3°C° 0 mm 2 mps 761 mmHg 54%
    05:00 -3°C° 0 mm 2 mps 761 mmHg 53%
    06:00 -3°C° 0 mm 2 mps 761 mmHg 53%
    07:00 -3°C° 0 mm 2 mps 761 mmHg 52%
    08:00 -2°C° 0 mm 2 mps 761 mmHg 50%
    09:00 -2°C° 0 mm 3 mps 761 mmHg 49%
    10:00 -2°C° 0 mm 3 mps 761 mmHg 47%
    11:00 -1°C° 0 mm 3 mps 761 mmHg 45%
    12:00 -1°C° 0 mm 3 mps 760 mmHg 43%
    13:00 -1°C° 0 mm 3 mps 760 mmHg 49%
    14:00 -1°C° 0 mm 3 mps 760 mmHg 55%
    15:00 -1°C° 0 mm 3 mps 759 mmHg 61%
    16:00 -1°C° 0 mm 2 mps 759 mmHg 67%
    17:00 -2°C° 0 mm 2 mps 759 mmHg 73%
    18:00 -2°C° 0 mm 2 mps 758 mmHg 79%
    19:00 -2°C° 0 mm 2 mps 758 mmHg 78%
    20:00 -2°C° 0 mm 2 mps 758 mmHg 76%
    21:00 -2°C° 0 mm 2 mps 758 mmHg 74%
    22:00 -2°C° 0 mm 2 mps 758 mmHg 74%
    23:00 -2°C° 0 mm 2 mps 757 mmHg 74%

    21 November, Wednesday

    Time Temperature Precipitation Wind Pressure Humidity
    00:00 -2°C° 0 mm 2 mps 757 mmHg 74%
    01:00 -1°C° 0 mm 1 mps 757 mmHg 76%
    02:00 -1°C° 0 mm 1 mps 756 mmHg 77%
    03:00 -1°C° 0 mm 1 mps 756 mmHg 79%
    04:00 -1°C° 0 mm 1 mps 756 mmHg 81%
    05:00 -1°C° 0 mm 1 mps 756 mmHg 84%
    06:00 -1°C° 0 mm 1 mps 756 mmHg 86%
    07:00 -1°C° 0 mm 1 mps 755 mmHg 86%
    08:00 -1°C° 0 mm 1 mps 755 mmHg 87%
    09:00 -1°C° 0 mm 1 mps 755 mmHg 87%
    10:00 0°C° 0 mm 1 mps 755 mmHg 85%
    11:00 0°C° 0 mm 1 mps 755 mmHg 83%
    12:00 +1°C° 0 mm 1 mps 755 mmHg 80%
    13:00 +1°C° 0 mm 1 mps 755 mmHg 81%
    14:00 +1°C° 0 mm 1 mps 755 mmHg 81%
    15:00 +1°C° 0 mm 1 mps 755 mmHg 82%
    16:00 0°C° 0 mm 1 mps 755 mmHg 84%
    17:00 -2°C° 0 mm 2 mps 755 mmHg 85%
    18:00 -2°C° 0 mm 2 mps 755 mmHg 87%
    19:00 -2°C° 0 mm 2 mps 755 mmHg 87%
    20:00 -3°C° 0 mm 2 mps 755 mmHg 87%
    21:00 -3°C° 0 mm 2 mps 755 mmHg 87%
    22:00 -3°C° 0 mm 2 mps 755 mmHg 87%
    23:00 -3°C° 0 mm 2 mps 755 mmHg 86%

    22 November, Thursday

    Time Temperature Precipitation Wind Pressure Humidity
    00:00 -3°C° 0 mm 2 mps 755 mmHg 86%
    01:00 -3°C° 0 mm 2 mps 755 mmHg 86%
    02:00 -5°C° 0 mm 3 mps 755 mmHg 85%
    03:00 -5°C° 0 mm 3 mps 755 mmHg 85%
    04:00 -5°C° 0 mm 3 mps 755 mmHg 86%
    05:00 -5°C° 0 mm 3 mps 755 mmHg 87%
    06:00 -6°C° 0 mm 3 mps 755 mmHg 88%
    07:00 -6°C° 0 mm 3 mps 755 mmHg 88%
    08:00 -6°C° 0 mm 3 mps 755 mmHg 88%
    09:00 -6°C° 0 mm 3 mps 755 mmHg 88%
    10:00 -5°C° 0 mm 3 mps 756 mmHg 84%
    11:00 -4°C° 0 mm 3 mps 756 mmHg 79%
    12:00 -2°C° 0 mm 3 mps 756 mmHg 74%
    13:00 -2°C° 0 mm 3 mps 756 mmHg 73%
    14:00 -2°C° 0 mm 3 mps 756 mmHg 72%
    15:00 -2°C° 0 mm 3 mps 756 mmHg 71%
    16:00 -4°C° 0 mm 3 mps 756 mmHg 74%
    17:00 -5°C° 0 mm 3 mps 756 mmHg 77%
    18:00 -5°C° 0 mm 3 mps 756 mmHg 80%
    19:00 -5°C° 0 mm 3 mps 756 mmHg 80%
    20:00 -5°C° 0 mm 2 mps 756 mmHg 80%
    21:00 -5°C° 0 mm 2 mps 756 mmHg 81%
    22:00 -5°C° 0 mm 2 mps 757 mmHg 81%
    23:00 -5°C° 0 mm 2 mps 757 mmHg 82%
    Show more